Regional Weather Roundup
Issued by NWS

Home | Current Version | Previous Version | Text Only | Print | Product List | Glossary On
Versions: 1 2 3 4 5 6 7 8 9 10 11 12 13 14 15 16 17 18 19 20 21 22 23 24 25 26 27 28 29 30 31 32 33 34 35 36 37 38 39 40 41 42 43 44 45 46 47 48 49 50
000
ASCA42 TJSJ 290610
RWRPR
PUERTO RICO/U.S. VIRGIN ISLANDS HOURLY WEATHER ROUNDUP
NATIONAL WEATHER SERVICE SAN JUAN PR
200 AM AST MON MAY 29 2017

PRZ001>002-007>008-010-290700-
PUERTO RICO

CITY           SKY/WX    TMP DP  RH WIND       PRES   REMARKS
SAN JUAN LMM   RAIN      81  75  83 E7        30.05F
PONCE          CLEAR     75  72  88 CALM      30.05F
AGUADILLA      CLEAR     75  73  94 E5        30.08S
CEIBA          MOCLDY    79  77  94 E8        30.06F
$$

VIZ001>002-290700-
U.S. VIRGIN ISLANDS

CITY           SKY/WX    TMP DP  RH WIND       PRES   REMARKS
CHARLOTTE AMA  PTCLDY    81  77  89 E14       30.03F
CHRISTIANSTED  PTCLDY    79  75  89 NE5       30.04F
$$

HOURLY WEATHER ROUNDUP FOR THE NEWS MEDIA

CITY           SKY/WX    TMP DP  RH WIND       PRES   REMARKS
ORLANDO        CLEAR     77  73  87 W5        29.99F
NEW YORK       CLOUDY    59  55  87 E12       29.90F
NEWARK         CLOUDY    61  53  75 E7        29.89S
CHICAGO        PTCLDY    63  49  60 SW5       29.76R
HARTFORD       CLOUDY    52  48  86 SE6       29.97F
BOSTON         CLOUDY    53  49  86 S9        29.99S
DALLAS         CLOUDY    74  69  85 SW3       30.03S
PHILADELPHIA   LGT RAIN  60  57  89 E8        29.84F
LOS ANGELES    PTCLDY    61  58  90 SW6       29.98S
WASHINGTON DC  CLOUDY    64  63  96 CALM      29.82R FOG


USA.gov is the U.S. government's official web portal to all federal, state and local government web resources and services.